TimeEST,TemperatureF,Dew PointF,Humidity,Sea Level PressureIn,VisibilityMPH,Wind Direction,Wind SpeedMPH,Gust SpeedMPH,PrecipitationIn,Events,Conditions,WindDirDegrees,DateUTC
12:54 AM,37.9,25.0,60,30.06,10.0,NE,13.8,-,N/A,,Overcast,50,2013-02-26 05:54:00
1:54 AM,35.1,30.0,82,30.05,6.0,ENE,12.7,-,0.00,,Haze,60,2013-02-26 06:54:00
2:54 AM,34.0,32.0,92,30.01,7.0,NE,9.2,-,0.00,,Overcast,50,2013-02-26 07:54:00
3:49 AM,33.8,32.0,93,29.96,2.5,NE,15.0,-,0.01,Rain,Light Rain,40,2013-02-26 08:49:00
3:54 AM,34.0,32.0,92,29.97,2.5,NE,15.0,-,0.02,Rain,Light Rain,40,2013-02-26 08:54:00
4:19 AM,33.8,32.0,93,29.93,3.0,NE,11.5,20.7,0.05,Rain,Light Rain,40,2013-02-26 09:19:00
4:54 AM,33.1,32.0,96,29.97,2.5,NNE,12.7,-,0.16,Rain,Heavy Rain,20,2013-02-26 09:54:00
5:02 AM,33.8,32.0,93,29.95,3.0,NNE,13.8,20.7,0.02,Rain,Rain,30,2013-02-26 10:02:00
5:54 AM,34.0,33.1,96,29.96,4.0,NNE,10.4,-,0.14,Rain,Rain,30,2013-02-26 10:54:00
7:54 AM,34.0,33.1,96,29.89,3.0,NE,12.7,-,0.11,Rain,Rain,40,2013-02-26 12:54:00
8:18 AM,33.8,33.8,100,29.86,2.5,NNE,12.7,-,0.07,Rain,Rain,30,2013-02-26 13:18:00
8:44 AM,33.8,33.8,100,29.84,1.2,NE,12.7,19.6,0.20,Rain,Heavy Rain,40,2013-02-26 13:44:00
8:54 AM,35.1,34.0,96,29.85,1.2,NE,13.8,-,0.27,Rain,Heavy Rain,40,2013-02-26 13:54:00
9:54 AM,36.0,35.1,97,29.84,4.0,NNE,6.9,-,0.07,Rain,Light Rain,20,2013-02-26 14:54:00
10:54 AM,37.0,36.0,96,29.78,10.0,NE,12.7,-,0.03,,Overcast,40,2013-02-26 15:54:00
11:51 AM,37.4,37.4,100,29.71,2.0,NE,9.2,-,0.03,,Overcast,40,2013-02-26 16:51:00
11:54 AM,37.9,37.9,100,29.73,1.8,NE,10.4,-,0.03,Rain,Light Rain,50,2013-02-26 16:54:00
12:12 PM,37.4,37.4,100,29.68,3.0,NE,13.8,-,0.02,Rain,Light Rain,50,2013-02-26 17:12:00
12:29 PM,39.2,37.4,93,29.65,2.5,NE,13.8,-,0.03,Rain,Light Rain,40,2013-02-26 17:29:00
12:36 PM,39.2,39.2,100,29.64,7.0,NE,10.4,-,0.03,Rain,Light Rain,40,2013-02-26 17:36:00
12:51 PM,39.2,39.2,100,29.65,5.0,NNE,8.1,-,0.03,Rain,Light Rain,20,2013-02-26 17:51:00
1:28 PM,41.0,41.0,100,29.63,2.5,NNW,4.6,-,0.02,Rain,Light Rain,330,2013-02-26 18:28:00
1:36 PM,41.0,41.0,100,29.64,3.0,Variable,4.6,-,0.03,Rain,Light Rain,0,2013-02-26 18:36:00
1:54 PM,42.1,41.0,96,29.61,5.0,NNE,8.1,-,0.04,Rain,Light Rain,20,2013-02-26 18:54:00
2:01 PM,41.0,41.0,100,29.62,1.8,Variable,3.5,-,0.04,Rain,Heavy Rain,0,2013-02-26 19:01:00
2:12 PM,41.0,41.0,100,29.63,3.0,Variable,5.8,-,0.05,Rain,Light Rain,0,2013-02-26 19:12:00
2:28 PM,41.0,39.2,93,29.60,5.0,NNE,8.1,-,0.06,Rain,Light Rain,20,2013-02-26 19:28:00
2:54 PM,41.0,39.0,93,29.61,4.0,North,9.2,-,0.06,,Overcast,10,2013-02-26 19:54:00
3:18 PM,39.2,39.2,100,29.60,2.0,NNW,4.6,-,0.00,Rain,Light Rain,340,2013-02-26 20:18:00
3:27 PM,39.2,37.4,93,29.60,1.8,North,13.8,-,0.00,Rain,Light Rain,360,2013-02-26 20:27:00
3:36 PM,39.2,39.2,100,29.61,2.0,Variable,6.9,-,0.00,Rain,Light Rain,0,2013-02-26 20:36:00
3:54 PM,39.0,39.0,100,29.62,3.0,North,6.9,-,0.00,,Overcast,360,2013-02-26 20:54:00
4:54 PM,39.9,39.0,97,29.62,8.0,Variable,5.8,-,N/A,,Overcast,0,2013-02-26 21:54:00
5:54 PM,39.9,39.0,97,29.62,9.0,Variable,3.5,-,N/A,,Overcast,0,2013-02-26 22:54:00
6:54 PM,39.9,39.0,97,29.64,8.0,Calm,Calm,-,N/A,,Overcast,0,2013-02-26 23:54:00
7:54 PM,39.9,39.0,97,29.66,4.0,Calm,Calm,-,N/A,,Overcast,0,2013-02-27 00:54:00
8:16 PM,39.2,39.2,100,29.64,3.0,Calm,Calm,-,N/A,,Overcast,0,2013-02-27 01:16:00
8:23 PM,39.2,39.2,100,29.65,1.8,Calm,Calm,-,N/A,,Overcast,0,2013-02-27 01:23:00
8:34 PM,39.2,39.2,100,29.65,0.5,Calm,Calm,-,N/A,Fog,Fog,0,2013-02-27 01:34:00
8:54 PM,39.0,39.0,100,29.67,0.5,Calm,Calm,-,N/A,Fog,Fog,0,2013-02-27 01:54:00
9:31 PM,39.2,39.2,100,29.66,0.2,Calm,Calm,-,N/A,Fog,Fog,0,2013-02-27 02:31:00
9:54 PM,39.9,39.9,100,29.68,0.2,Calm,Calm,-,N/A,Fog,Fog,0,2013-02-27 02:54:00
10:24 PM,39.2,39.2,100,29.67,0.5,SSW,5.8,-,N/A,Fog,Fog,210,2013-02-27 03:24:00
10:54 PM,39.9,39.9,100,29.68,0.8,Variable,6.9,-,N/A,,Mist,0,2013-02-27 03:54:00
11:12 PM,39.2,39.2,100,29.67,1.2,Variable,6.9,-,N/A,,Overcast,0,2013-02-27 04:12:00
11:36 PM,39.2,39.2,100,29.67,2.5,SSW,4.6,-,N/A,,Overcast,210,2013-02-27 04:36:00
11:54 PM,41.0,41.0,100,29.68,2.5,Variable,3.5,-,N/A,,Overcast,0,2013-02-27 04:54:00